Wind From: 11-12-2017 06:00 Until: 12-12-2017 06:00 warning for: Wind Level: Orange info button

Power and phone distribution networks may be disrupted for relatively long periods., Roofs and chimneys can be damaged. , Tree branches may break. , Vehicles can be deported. , Traffic may be disrupted, particularly on secondary roads in forest areas. Limit your trips. , Limit your speed in highway driving, especially if you drive a vehicle or hitch sensitive to wind. , Do not go for walks in forests or along the coast., In town, be vigilant against possible falling objects., Do not work on roofs and do not touch any electrical line fallen on the ground., Store or secure sensitive objects to wind or likely to be damaged., Always install power generators outside buildings. 


Meteo18 Weather Cam more information Meteo18 Weather Cam


Thunder radar more information blitzortung!


Rain radar more information rain snow radar


Visit our other weather sites:

Template documentation
and downloads

And another site



Weather Underground History page Text

Daily Summary for May 2, 2017 Units:  English    Metric   Both
« Previous Day
Next Day »
Daily Weekly Monthly Yearly Custom
  High: Low: Average:
Temperature: 54.5 °F 43.5 °F 48.2 °F
Dew Point: 47.3 °F 41.9 °F 44.1 °F
Humidity: 95 % 70 % 86 %
Wind Speed: 14 mph 0 mph 3 mph
Wind Gust: 19 mph - -
Wind:- - SSE
Pressure: 30.1 in 29.9 in -
Precipitation: 0.31 in    
Historical Graphs
 
 
Tabular Data for May 2, 2017
Time Temperature Dew Point Pressure Wind Wind Speed Wind Gust Humidity Rainfall Rate (Hourly)
00:02 46.8 °F 42.4 °F 30 in SW 2 mph 4 mph 85 % 0 in
00:07 46.8 °F 42.4 °F 30 in SSW 2 mph 4 mph 85 % 0 in
00:12 46.8 °F 42.4 °F 30 in SSW 1 mph 4 mph 85 % 0 in
00:17 46.8 °F 42.4 °F 30 in Calm   4 mph 85 % 0 in
00:22 46.6 °F 42.3 °F 30 in Calm   4 mph 85 % 0 in
00:27 46.6 °F 42.6 °F 30 in Calm   3 mph 86 % 0 in
00:32 46.4 °F 42.4 °F 30 in Calm   2 mph 86 % 0 in
00:37 46.4 °F 42.4 °F 30 in Calm   1 mph 86 % 0 in
00:42 46.4 °F 42.4 °F 30 in Calm   1 mph 86 % 0 in
00:47 46.4 °F 42.8 °F 30 in West 1 mph 1 mph 87 % 0 in
00:52 46.2 °F 42.6 °F 30 in Calm   1 mph 87 % 0 in
01:02 46.4 °F 42.8 °F 30 in Calm   1 mph 87 % 0 in
01:12 46.2 °F 42.6 °F 30 in Calm   1 mph 87 % 0 in
01:17 46.2 °F 42.6 °F 30 in Calm   1 mph 87 % 0 in
01:22 46.2 °F 42.6 °F 30 in Calm     87 % 0 in
01:32 46.2 °F 43.2 °F 30 in Calm   1 mph 89 % 0.01 in
01:37 46 °F 43 °F 30 in South 3 mph 3 mph 89 % 0.01 in
01:42 46 °F 43.3 °F 30 in Calm   4 mph 90 % 0.02 in
01:47 46 °F 43.3 °F 30 in SSW 2 mph 4 mph 90 % 0.02 in
01:52 45.9 °F 43.2 °F 30 in South 1 mph 5 mph 90 % 0.02 in
01:57 45.9 °F 43.3 °F 30 in SW 1 mph 5 mph 91 % 0.02 in
02:02 45.9 °F 43.3 °F 30 in SSW 1 mph 5 mph 91 % 0.03 in
02:07 45.7 °F 43.2 °F 30 in Calm   3 mph 91 % 0.04 in
02:12 45.7 °F 43.5 °F 30 in Calm   3 mph 92 % 0.04 in
02:17 45.7 °F 43.5 °F 30 in Calm   3 mph 92 % 0.05 in
02:22 45.7 °F 43.5 °F 30 in Calm   2 mph 92 % 0.05 in
02:27 45.7 °F 43.5 °F 30 in Calm   1 mph 92 % 0.06 in
02:32 45.7 °F 43.5 °F 30 in Calm   1 mph 92 % 0.05 in
02:37 45.5 °F 43.5 °F 30 in Calm   1 mph 93 % 0.05 in
02:42 45.5 °F 43.5 °F 30 in Calm   1 mph 93 % 0.05 in
02:47 45.7 °F 43.7 °F 30 in Calm   1 mph 93 % 0.05 in
02:52 45.5 °F 43.5 °F 30 in Calm   2 mph 93 % 0.04 in
02:57 45.3 °F 43.3 °F 30 in Calm   2 mph 93 % 0.05 in
03:02 45.3 °F 43.3 °F 30 in Calm   2 mph 93 % 0.04 in
03:07 45.3 °F 43.3 °F 30 in Calm   1 mph 93 % 0.04 in
03:12 45.3 °F 43.7 °F 30 in Calm   1 mph 94 % 0.04 in
03:17 45.3 °F 43.7 °F 30 in Calm   1 mph 94 % 0.05 in
03:22 45.3 °F 43.7 °F 30 in ESE 1 mph 3 mph 94 % 0.05 in
03:27 45.3 °F 43.7 °F 30 in Calm   3 mph 94 % 0.06 in
03:32 45.3 °F 43.7 °F 30 in East 1 mph 2 mph 94 % 0.06 in
03:37 45.3 °F 43.7 °F 30 in Calm   2 mph 94 % 0.07 in
03:42 45.3 °F 43.7 °F 30 in ESE 2 mph 4 mph 94 % 0.07 in
03:52 45.1 °F 43.5 °F 30 in Calm   4 mph 94 % 0.08 in
03:57 45.1 °F 43.5 °F 30 in East 1 mph 2 mph 94 % 0.08 in
04:02 45.1 °F 43.5 °F 30 in East 2 mph 3 mph 94 % 0.08 in
04:07 45 °F 43.7 °F 30 in East 2 mph 3 mph 95 % 0.09 in
04:12 45 °F 43.7 °F 30 in ENE 2 mph 4 mph 95 % 0.08 in
04:17 45 °F 43.7 °F 30 in ENE 2 mph 4 mph 95 % 0.08 in
04:22 45 °F 43.7 °F 30 in Calm   6 mph 95 % 0.08 in
04:27 45 °F 43.7 °F 30 in Calm   6 mph 95 % 0.07 in
04:32 45 °F 43.7 °F 30 in East 2 mph 6 mph 95 % 0.06 in
04:37 45 °F 43.7 °F 30 in ESE 2 mph 3 mph 95 % 0.06 in
04:42 45 °F 43.7 °F 30 in Calm   2 mph 95 % 0.06 in
04:47 45 °F 43.7 °F 30 in Calm   2 mph 95 % 0.06 in
04:52 44.8 °F 43.5 °F 30 in East 3 mph 4 mph 95 % 0.06 in
04:57 44.8 °F 43.5 °F 30 in ESE 2 mph 5 mph 95 % 0.05 in
05:02 44.8 °F 43.5 °F 30 in ESE 2 mph 6 mph 95 % 0.06 in
05:07 44.8 °F 43.5 °F 30 in East 2 mph 7 mph 95 % 0.05 in
05:12 44.8 °F 43.5 °F 30 in ESE 2 mph 7 mph 95 % 0.04 in
05:17 44.8 °F 43.5 °F 29.9 in ESE 1 mph 7 mph 95 % 0.05 in
05:22 44.8 °F 43.5 °F 29.9 in East 3 mph 5 mph 95 % 0.04 in
05:27 44.8 °F 43.5 °F 29.9 in ESE 1 mph 6 mph 95 % 0.04 in
05:32 44.6 °F 43.3 °F 29.9 in East 2 mph 6 mph 95 % 0.03 in
05:37 44.4 °F 43.2 °F 29.9 in ENE 6 mph 6 mph 95 % 0.03 in
05:42 44.4 °F 43.2 °F 29.9 in ENE 3 mph 7 mph 95 % 0.03 in
05:47 44.4 °F 43.2 °F 29.9 in NE 2 mph 7 mph 95 % 0.03 in
05:52 44.2 °F 43 °F 29.9 in East 4 mph 7 mph 95 % 0.02 in
05:57 44.2 °F 43 °F 29.9 in East 2 mph 7 mph 95 % 0.02 in
06:02 44.2 °F 43 °F 29.9 in ENE 1 mph 5 mph 95 % 0.02 in
06:12 44.2 °F 43 °F 29.9 in ENE 2 mph 5 mph 95 % 0.02 in
06:17 44.2 °F 43 °F 29.9 in NNE 4 mph 5 mph 95 % 0.02 in
06:22 44.2 °F 43 °F 29.9 in NE 4 mph 6 mph 95 % 0.02 in
06:27 44.2 °F 43 °F 29.9 in NE 2 mph 7 mph 95 % 0.02 in
06:32 44.2 °F 43 °F 29.9 in NNE 3 mph 7 mph 95 % 0.02 in
06:37 44.2 °F 43 °F 29.9 in NE 4 mph 7 mph 95 % 0.02 in
06:42 44.2 °F 43 °F 29.9 in NE 5 mph 7 mph 95 % 0.01 in
06:47 44.2 °F 43 °F 29.9 in NE 7 mph 8 mph 95 % 0.01 in
06:52 44.1 °F 42.8 °F 29.9 in NE 4 mph 9 mph 95 % 0.01 in
07:02 44.1 °F 42.8 °F 29.9 in NE 6 mph 9 mph 95 % 0.01 in
07:12 44.1 °F 42.8 °F 29.9 in North 5 mph 9 mph 95 % 0 in
07:17 44.1 °F 42.8 °F 29.9 in NNE 7 mph 10 mph 95 % 0 in
07:22 44.1 °F 42.8 °F 29.9 in NE 8 mph 11 mph 95 % 0 in
07:27 44.1 °F 42.8 °F 29.9 in NE 3 mph 11 mph 95 % 0 in
07:32 44.1 °F 42.8 °F 29.9 in ENE 3 mph 11 mph 95 % 0.01 in
07:37 44.1 °F 42.4 °F 29.9 in NE 6 mph 11 mph 94 % 0.01 in
07:42 44.1 °F 42.4 °F 29.9 in NE 5 mph 11 mph 94 % 0.01 in
07:47 44.1 °F 42.4 °F 29.9 in NE 4 mph 11 mph 94 % 0.01 in
07:52 43.9 °F 42.3 °F 29.9 in ENE 7 mph 11 mph 94 % 0.01 in
07:57 43.9 °F 42.3 °F 29.9 in NNE 5 mph 11 mph 94 % 0.01 in
08:02 43.9 °F 42.3 °F 29.9 in NE 6 mph 12 mph 94 % 0.02 in
08:12 43.7 °F 42.1 °F 29.9 in ENE 5 mph 11 mph 94 % 0.02 in
08:17 43.5 °F 41.9 °F 30 in NE 5 mph 14 mph 94 % 0.02 in
08:22 43.5 °F 41.9 °F 30 in ENE 7 mph 14 mph 94 % 0.02 in
08:27 43.5 °F 41.9 °F 30 in NE 7 mph 16 mph 94 % 0.02 in
08:32 43.5 °F 41.9 °F 30 in NE 10 mph 16 mph 94 % 0.02 in
08:37 43.5 °F 41.9 °F 30 in North 12 mph 16 mph 94 % 0.02 in
08:42 43.5 °F 41.9 °F 30 in NE 3 mph 12 mph 94 % 0.02 in
08:47 43.5 °F 41.9 °F 30 in North 7 mph 12 mph 94 % 0.02 in
08:57 43.5 °F 42.3 °F 30 in NNE 8 mph 14 mph 95 % 0.02 in
09:02 43.5 °F 42.3 °F 30 in NNE 8 mph 16 mph 95 % 0.02 in
09:12 43.9 °F 42.6 °F 30 in NE 6 mph 16 mph 95 % 0.02 in
09:17 43.9 °F 42.6 °F 30 in NNE 9 mph 16 mph 95 % 0.03 in
09:22 44.1 °F 42.8 °F 30 in NNE 6 mph 16 mph 95 % 0.02 in
09:32 44.2 °F 43 °F 30 in NNE 7 mph 15 mph 95 % 0.02 in
09:42 44.4 °F 43.2 °F 30 in NNE 10 mph 13 mph 95 % 0.02 in
09:47 44.4 °F 42.8 °F 30 in NNE 6 mph 13 mph 94 % 0.02 in
09:52 44.4 °F 42.8 °F 30 in ENE 7 mph 14 mph 94 % 0.02 in
09:57 44.6 °F 43 °F 30 in NNE 8 mph 14 mph 94 % 0.02 in
10:02 44.8 °F 43.2 °F 30 in ENE 2 mph 13 mph 94 % 0.02 in
10:07 45 °F 43.3 °F 30 in North 3 mph 13 mph 94 % 0.02 in
10:12 45 °F 43.3 °F 30 in NE 4 mph 13 mph 94 % 0.02 in
10:17 45.1 °F 43.5 °F 30 in NE 7 mph 12 mph 94 % 0.01 in
10:22 45.3 °F 43.7 °F 30 in North 5 mph 11 mph 94 % 0.01 in
10:32 45.5 °F 43.5 °F 30 in NE 4 mph 13 mph 93 % 0.01 in
10:37 45.9 °F 43.9 °F 30 in North 6 mph 13 mph 93 % 0.01 in
10:42 45.9 °F 43.7 °F 30 in NNE 5 mph 13 mph 92 % 0 in
10:47 46 °F 43.5 °F 30 in NNE 7 mph 9 mph 91 % 0 in
10:52 45.9 °F 43.2 °F 30 in NNE 5 mph 12 mph 90 % 0 in
10:57 45.9 °F 42.8 °F 30 in NE 4 mph 13 mph 89 % 0 in
11:02 46 °F 43 °F 30 in NNE 8 mph 13 mph 89 % 0 in
11:07 46 °F 43 °F 30 in NNE 4 mph 13 mph 89 % 0 in
11:12 46 °F 43.3 °F 30 in ENE 1 mph 10 mph 90 % 0 in
11:17 46 °F 43.3 °F 30 in NNW 1 mph 10 mph 90 % 0 in
11:22 46.2 °F 43.5 °F 30 in NNW 1 mph 10 mph 90 % 0 in
11:27 46 °F 43.3 °F 30 in NE 1 mph 10 mph 90 % 0 in
11:32 46.2 °F 43.5 °F 30 in North 7 mph 7 mph 90 % 0 in
11:42 46.2 °F 43.7 °F 30 in NNE 1 mph 9 mph 91 % 0 in
11:47 46.4 °F 43.9 °F 30 in NW 4 mph 9 mph 91 % 0 in
11:52 46.6 °F 44.1 °F 30 in NNE 2 mph 9 mph 91 % 0 in
12:02 46.9 °F 44.4 °F 30 in ENE 1 mph 9 mph 91 % 0 in
12:07 47.1 °F 44.6 °F 30 in NE 6 mph 9 mph 91 % 0 in
12:12 47.5 °F 44.4 °F 30 in NE 9 mph 9 mph 89 % 0 in
12:17 48.2 °F 45.1 °F 30 in ENE 5 mph 12 mph 89 % 0 in
12:22 48.9 °F 45.5 °F 30 in NE 3 mph 12 mph 88 % 0 in
12:27 49.1 °F 45.3 °F 30 in Calm   12 mph 87 % 0 in
12:32 49.5 °F 45.5 °F 30 in ENE 5 mph 9 mph 86 % 0 in
12:42 49.6 °F 45 °F 30 in ENE 6 mph 14 mph 84 % 0 in
12:47 49.8 °F 45.1 °F 30 in NNE 5 mph 14 mph 84 % 0 in
12:57 50.2 °F 45.5 °F 30 in NE 3 mph 12 mph 84 % 0 in
13:02 50.4 °F 45.3 °F 30 in NNE 7 mph 12 mph 83 % 0 in
13:12 50.4 °F 45.1 °F 30 in NE 6 mph 15 mph 82 % 0 in
13:17 49.8 °F 43.9 °F 30 in NNE 9 mph 15 mph 80 % 0 in
13:22 49.8 °F 44.2 °F 30 in NNE 6 mph 15 mph 81 % 0 in
13:27 50.2 °F 45 °F 30 in NNE 4 mph 15 mph 82 % 0 in
13:32 50.5 °F 45 °F 30 in NNE 8 mph 15 mph 81 % 0 in
13:37 50.5 °F 44.2 °F 30 in NNE 7 mph 15 mph 79 % 0 in
13:42 50.7 °F 45.1 °F 30 in ENE 4 mph 13 mph 81 % 0 in
13:47 51.4 °F 45.9 °F 30 in NE 2 mph 13 mph 81 % 0 in
13:52 51.6 °F 46 °F 30 in ENE 5 mph 12 mph 81 % 0 in
13:57 51.4 °F 45.9 °F 30 in NE 5 mph 7 mph 81 % 0 in
14:02 51.8 °F 45.9 °F 30 in ENE 3 mph 8 mph 80 % 0 in
14:07 52.3 °F 46 °F 30 in ENE 4 mph 8 mph 79 % 0 in
14:12 52.5 °F 45.5 °F 30 in ENE 2 mph 9 mph 77 % 0 in
14:17 52.5 °F 45.9 °F 30 in ENE 3 mph 9 mph 78 % 0 in
14:22 52.3 °F 45.3 °F 30 in ENE 4 mph 9 mph 77 % 0 in
14:27 52 °F 45.3 °F 30 in NE 2 mph 5 mph 78 % 0 in
14:32 51.6 °F 46 °F 30 in NE 3 mph 5 mph 81 % 0 in
14:37 51.6 °F 46.2 °F 30 in North 1 mph 5 mph 82 % 0 in
14:42 51.6 °F 46.6 °F 30 in NNE 2 mph 5 mph 83 % 0.01 in
14:47 52.3 °F 47.3 °F 30 in North 6 mph 6 mph 83 % 0.01 in
14:52 52.3 °F 46.8 °F 30 in NNW 3 mph 9 mph 81 % 0.01 in
14:57 52.3 °F 46 °F 30 in NNE 3 mph 9 mph 79 % 0.01 in
15:02 52.9 °F 46.2 °F 30 in NNE 1 mph 9 mph 78 % 0.01 in
15:12 53.8 °F 45.3 °F 30 in North 2 mph 8 mph 73 % 0.01 in
15:17 54.3 °F 46.2 °F 30 in WNW 5 mph 9 mph 74 % 0.01 in
15:22 54.3 °F 46.2 °F 30 in North 6 mph 10 mph 74 % 0.01 in
15:27 54 °F 44.8 °F 30 in NNE 3 mph 10 mph 71 % 0.01 in
15:32 54 °F 44.8 °F 30 in North 9 mph 11 mph 71 % 0.01 in
15:37 53.8 °F 45.3 °F 30 in NNE 5 mph 11 mph 73 % 0.01 in
15:42 53.1 °F 45.3 °F 30 in NE 7 mph 11 mph 75 % 0 in
15:47 52 °F 46 °F 30 in ENE 7 mph 14 mph 80 % 0 in
16:02 52.3 °F 45.7 °F 30 in NNW 3 mph 8 mph 78 % 0 in
16:07 52.9 °F 46.2 °F 30 in NNE 3 mph 5 mph 78 % 0 in
16:12 53.1 °F 45.7 °F 30.1 in North 5 mph 7 mph 76 % 0 in
16:17 53.1 °F 45 °F 30.1 in North 6 mph 10 mph 74 % 0 in
16:22 53.6 °F 46.2 °F 30.1 in WNW 1 mph 10 mph 76 % 0 in
16:32 54.1 °F 45.7 °F 30.1 in NNE 5 mph 10 mph 73 % 0 in
16:37 54.3 °F 45.5 °F 30.1 in NNE 6 mph 9 mph 72 % 0 in
16:42 54.1 °F 45.7 °F 30.1 in NNW 2 mph 7 mph 73 % 0 in
16:47 54.1 °F 46 °F 30.1 in NNW 4 mph 7 mph 74 % 0 in
16:52 53.6 °F 45.1 °F 30.1 in NNW 4 mph 8 mph 73 % 0 in
16:57 52.9 °F 45.1 °F 30.1 in NNE 14 mph 14 mph 75 % 0 in
17:02 52 °F 43.2 °F 30.1 in NW 7 mph 19 mph 72 % 0 in
17:07 51.3 °F 43.9 °F 30.1 in ENE 3 mph 19 mph 76 % 0 in
17:12 50.5 °F 43.9 °F 30.1 in NE 5 mph 19 mph 78 % 0.01 in
17:17 50.2 °F 44.2 °F 30.1 in NE 3 mph 14 mph 80 % 0.01 in
17:22 50.4 °F 44.8 °F 30.1 in NNW 2 mph 10 mph 81 % 0.01 in
17:27 50.5 °F 44.2 °F 30.1 in NW 2 mph 10 mph 79 % 0.01 in
17:32 50.7 °F 44.1 °F 30.1 in WNW 1 mph 6 mph 78 % 0.01 in
17:37 51.4 °F 45.1 °F 30.1 in NW 4 mph 5 mph 79 % 0.01 in
17:42 51.6 °F 44.6 °F 30.1 in NW 2 mph 5 mph 77 % 0.01 in
17:47 52 °F 45.3 °F 30.1 in WNW 5 mph 5 mph 78 % 0.01 in
17:52 52.2 °F 45.1 °F 30.1 in WNW 3 mph 5 mph 77 % 0.01 in
17:57 52.3 °F 44.6 °F 30.1 in WNW 3 mph 5 mph 75 % 0.01 in
18:02 52.5 °F 45.1 °F 30.1 in NW 3 mph 5 mph 76 % 0.01 in
18:07 52.5 °F 45.5 °F 30.1 in NW 4 mph 5 mph 77 % 0.01 in
18:12 52.3 °F 45.7 °F 30.1 in Calm   6 mph 78 % 0 in
18:22 52.5 °F 46.6 °F 30.1 in WSW 2 mph 6 mph 80 % 0 in
18:32 52.5 °F 46.2 °F 30.1 in WNW 2 mph 6 mph 79 % 0 in
18:42 53.2 °F 46.6 °F 30.1 in WNW 2 mph 6 mph 78 % 0 in
18:47 53.8 °F 46 °F 30.1 in WSW 2 mph 6 mph 75 % 0 in
18:57 54.5 °F 45.3 °F 30.1 in WNW 1 mph 4 mph 71 % 0 in
19:02 54.1 °F 44.6 °F 30.1 in NW 2 mph 6 mph 70 % 0 in
19:07 53.8 °F 44.6 °F 30.1 in West 2 mph 6 mph 71 % 0 in
19:12 53.6 °F 44.8 °F 30.1 in WSW 3 mph 6 mph 72 % 0 in
19:17 53.4 °F 44.6 °F 30.1 in West 1 mph 4 mph 72 % 0 in
19:22 53.2 °F 45.1 °F 30.1 in WNW 4 mph 5 mph 74 % 0 in
19:27 53.1 °F 45.3 °F 30.1 in West 1 mph 5 mph 75 % 0 in
19:32 52.9 °F 45.1 °F 30.1 in WNW 4 mph 5 mph 75 % 0 in
19:37 52.7 °F 45.7 °F 30.1 in WNW 5 mph 5 mph 77 % 0 in
19:42 52.9 °F 46.2 °F 30.1 in WSW 2 mph 5 mph 78 % 0 in
19:47 52.9 °F 46.6 °F 30.1 in West 3 mph 5 mph 79 % 0 in
19:52 52.9 °F 46.2 °F 30.1 in WNW 3 mph 5 mph 78 % 0 in
19:57 52.5 °F 45.9 °F 30.1 in West 2 mph 6 mph 78 % 0 in
20:02 52.3 °F 45.7 °F 30.1 in Calm   6 mph 78 % 0 in
20:07 52 °F 45.3 °F 30.1 in West 6 mph 7 mph 78 % 0 in
20:12 51.8 °F 45.1 °F 30.1 in WNW 1 mph 9 mph 78 % 0 in
20:17 51.4 °F 44.8 °F 30.1 in West 2 mph 9 mph 78 % 0 in
20:22 51.3 °F 44.6 °F 30.1 in NW 2 mph 9 mph 78 % 0 in
20:27 50.9 °F 44.6 °F 30.1 in WNW 3 mph 5 mph 79 % 0 in
20:37 50.7 °F 44.1 °F 30.1 in WNW 1 mph 4 mph 78 % 0 in
20:42 50.4 °F 44.1 °F 30.1 in Calm   3 mph 79 % 0 in
20:47 50.2 °F 43.9 °F 30.1 in West 1 mph 3 mph 79 % 0 in
20:52 50.4 °F 44.1 °F 30.1 in Calm   3 mph 79 % 0 in
20:57 50.2 °F 43.9 °F 30.1 in Calm   4 mph 79 % 0 in
21:02 49.8 °F 43.5 °F 30.1 in Calm   4 mph 79 % 0 in
21:07 49.6 °F 43.7 °F 30.1 in Calm   2 mph 80 % 0 in
21:12 49.5 °F 43.9 °F 30.1 in NW 2 mph 3 mph 81 % 0 in
21:17 49.5 °F 44.2 °F 30.1 in West 3 mph 4 mph 82 % 0 in
21:22 49.3 °F 44.1 °F 30.1 in WNW 1 mph 6 mph 82 % 0 in
21:27 49.3 °F 44.4 °F 30.1 in WNW 1 mph 6 mph 83 % 0 in
21:32 49.1 °F 44.4 °F 30.1 in WNW 1 mph 4 mph 84 % 0 in
21:37 48.9 °F 44.2 °F 30.1 in West 1 mph 4 mph 84 % 0 in
21:42 49.1 °F 44.2 °F 30.1 in West 4 mph 6 mph 83 % 0 in
21:47 49.5 °F 44.2 °F 30.1 in WNW 2 mph 6 mph 82 % 0 in
21:52 49.5 °F 43.9 °F 30.1 in West 2 mph 6 mph 81 % 0 in
21:57 49.6 °F 43.7 °F 30.1 in WNW 6 mph 6 mph 80 % 0 in
22:02 49.8 °F 43.9 °F 30.1 in West 4 mph 6 mph 80 % 0 in
22:07 49.8 °F 43.9 °F 30.1 in SW 2 mph 6 mph 80 % 0 in
22:12 49.6 °F 44.1 °F 30.1 in Calm   6 mph 81 % 0 in
22:17 49.6 °F 44.1 °F 30.1 in West 2 mph 6 mph 81 % 0 in
22:27 49.6 °F 44.1 °F 30.1 in West 1 mph 5 mph 81 % 0 in
22:32 49.6 °F 44.1 °F 30.1 in Calm   5 mph 81 % 0 in
22:37 49.6 °F 44.1 °F 30.1 in WNW 1 mph 4 mph 81 % 0 in
22:42 49.6 °F 44.1 °F 30.1 in West 1 mph 3 mph 81 % 0 in
22:47 49.6 °F 44.1 °F 30.1 in Calm   3 mph 81 % 0 in
22:52 49.6 °F 44.4 °F 30.1 in Calm   3 mph 82 % 0 in
22:57 49.5 °F 44.2 °F 30.1 in WNW 1 mph 3 mph 82 % 0 in
23:02 49.5 °F 44.2 °F 30.1 in Calm   2 mph 82 % 0 in
23:07 49.5 °F 44.6 °F 30.1 in WNW 3 mph 3 mph 83 % 0 in
23:12 49.3 °F 44.4 °F 30.1 in West 1 mph 3 mph 83 % 0 in
23:17 49.3 °F 44.4 °F 30.1 in WNW 3 mph 3 mph 83 % 0 in
23:22 49.3 °F 44.4 °F 30.1 in WNW 1 mph 5 mph 83 % 0 in
23:27 49.3 °F 44.4 °F 30.1 in WSW 1 mph 5 mph 83 % 0 in
23:32 49.3 °F 44.4 °F 30.1 in West 2 mph 5 mph 83 % 0 in
23:37 49.3 °F 44.6 °F 30.1 in Calm   5 mph 84 % 0 in
23:42 49.1 °F 44.4 °F 30.1 in West 1 mph 5 mph 84 % 0 in
23:47 49.1 °F 44.4 °F 30.1 in West 3 mph 3 mph 84 % 0 in
23:52 49.3 °F 44.6 °F 30.1 in West 2 mph 3 mph 84 % 0 in
23:57 49.3 °F 44.6 °F 30.1 in West 1 mph 3 mph 84 % 0 in
Meteo18
Compliments of Weather Underground - 4 mb

Script developed by  Jim McMurry - jmcmurry@mwt.net Adapted for the template by  Wim van der Kuil - Leuven-Template.eu

You find our weather info also at:

European Weather Network

Weather Underground

Equipment we use:

Weather-station
Davis Vue

Weather-program
Meteohub

Weather-server
Raspberry PI 2 B+

Provider
1 and 1

Davis Vue

Meteohub

Raspberry PI 2 B+

1 and 1